[[{"header":{"parameterUnit":"m.s-1","parameterCategory":1,"la1":30.2992,"la2":30.254,"lo1":-89.0895,"lo2":-89.0443,"dy":0.0025,"dx":0.0025,"nx":19,"ny":19,"refTime":"2026-05-14T21:00:00:Z","depth":0,"parameterNumber":2,"parameterNumberName":"U-component_of_WINDS"},"data":[0,0,0,-2.6285,-2.6285,-2.627,-2.627,-2.6266,-2.6266,0,0,0,0,0,0,0,0,0,0,0,-2.6298,-2.6299,-2.6285,-2.6285,-2.627,-2.627,-2.6266,-2.6266,0,0,0,0,0,0,0,0,0,0,0,-2.6298,-2.6299,-2.6299,-2.6285,-2.627,-2.627,-2.6266,-2.6272,0,0,0,0,0,0,0,0,0,0,-2.6284,-2.6305,-2.6299,-2.6299,-2.6285,-2.627,-2.627,-2.6272,-2.6272,-2.628,0,-2.6289,0,-2.6278,-2.6267,-2.6267,0,0,0,-2.6278,-2.6305,-2.6293,-2.6299,-2.6285,-2.627,-2.6275,-2.6272,-2.6271,-2.6279,-2.6288,-2.6288,-2.6278,-2.6267,-2.6267,-2.6336,-2.6337,0,0,-2.6279,-2.63,-2.6294,-2.6293,-2.6296,-2.6275,-2.6275,-2.6271,-2.6283,-2.6288,-2.6288,-2.6278,-2.6267,-2.6267,-2.6335,-2.6336,0,0,0,-2.6286,-2.6301,-2.6289,-2.6294,-2.629,-2.6275,-2.6274,-2.6283,-2.6277,-2.6287,-2.6278,-2.6267,-2.6267,-2.6335,-2.6336,-2.6387,0,0,0,-2.6286,-2.6305,-2.629,-2.6303,-2.6291,-2.6286,-2.6286,-2.6277,-2.6276,-2.6278,-2.6267,-2.6268,-2.6334,-2.6335,-2.6384,-2.6407,0,0,0,-2.6296,-2.6306,-2.6307,-2.6304,-2.6298,-2.6286,-2.628,-2.6277,-2.6271,-2.6267,-2.6268,-2.6333,-2.6335,-2.6381,-2.6403,-2.6431,0,0,0,-2.6313,-2.6352,-2.6308,-2.6349,-2.6298,-2.6318,-2.6279,-2.6293,-2.6296,-2.6267,-2.6334,-2.6336,-2.6381,-2.64,-2.6429,-2.6458,-2.6473,0,0,-2.6374,-2.636,-2.6382,-2.6343,-2.6376,-2.6319,-2.636,-2.6342,-2.6323,-2.6333,-2.6334,-2.6385,-2.6402,-2.6431,-2.655,-2.6562,0,0,0,-2.6409,-2.6425,-2.6429,-2.6434,-2.6423,-2.6415,-2.639,-2.6384,-2.6392,-2.6332,-2.6403,-2.6413,-2.6429,-2.6442,-2.6452,-2.6464,-2.6343,-2.6343,-2.6343,-2.6523,-2.6497,-2.6533,-2.6506,-2.6512,-2.6487,-2.6489,-2.6478,-2.6449,-2.6467,-2.6468,-2.6544,-2.656,-2.6568,-2.6581,-2.6484,-2.6484,-2.6484,-2.6484,-2.6609,-2.6627,-2.6592,-2.6613,-2.6587,-2.6604,-2.6584,-2.6564,-2.6577,-2.654,-2.6552,-2.6513,-2.6581,-2.6592,-2.6488,-2.6487,-2.6487,-2.6486,-2.6486,-2.6679,-2.6683,-2.6677,-2.6683,-2.6692,-2.6664,-2.668,-2.6655,-2.6632,-2.6645,-2.6645,-2.6644,-2.6639,-2.6647,-2.6647,-2.6648,-2.6648,-2.6648,-2.6648,-2.6753,-2.6745,-2.676,-2.6755,-2.6756,-2.6755,-2.6734,-2.6735,-2.6729,-2.671,-2.671,-2.668,-2.6594,-2.6571,-2.6652,-2.6651,-2.6651,-2.665,-2.665,-2.6846,-2.6822,-2.6846,-2.6848,-2.6841,-2.6851,-2.6822,-2.6826,-2.6824,-2.6832,-2.6802,-2.6742,-2.6725,-2.6717,-2.6698,-2.6807,-2.6807,-2.6807,-2.6807,-2.6905,-2.6895,-2.6915,-2.692,-2.6922,-2.6898,-2.6928,-2.6914,-2.6895,-2.6892,-2.6874,-2.6848,-2.6841,-2.6828,-2.6818,-2.68,-2.6932,-2.6932,-2.6932,-2.696,-2.6951,-2.6979,-2.6961,-2.6955,-2.6951,-2.6978,-2.6986,-2.6959,-2.6937,-2.689,-2.6884,-2.6842,-2.683,-2.6803,-2.6787,-2.6753,0,0]},{"header":{"parameterUnit":"m.s-1","parameterCategory":1,"la1":30.2992,"la2":30.254,"lo1":-89.0895,"lo2":-89.0443,"dy":0.0025,"dx":0.0025,"nx":19,"ny":19,"refTime":"2026-05-14T21:00:00:Z","depth":0,"parameterNumber":3,"parameterNumberName":"V-component_of_WINDS"},"data":[0,0,0,4.0666,4.0665,4.0625,4.0625,4.0566,4.0565,0,0,0,0,0,0,0,0,0,0,0,4.0676,4.0675,4.0666,4.0665,4.0625,4.0625,4.0566,4.0565,0,0,0,0,0,0,0,0,0,0,0,4.0676,4.0675,4.0675,4.0665,4.0625,4.0625,4.0566,4.0598,0,0,0,0,0,0,0,0,0,0,4.0639,4.0646,4.0676,4.0675,4.0665,4.0625,4.0625,4.06,4.0596,4.0582,0,4.057,0,4.0567,4.0561,4.0561,0,0,0,4.0666,4.0649,4.0641,4.0675,4.0664,4.0625,4.0643,4.0598,4.0594,4.0577,4.0569,4.0567,4.0566,4.0561,4.056,4.0479,4.0478,0,0,4.0668,4.0667,4.0643,4.0638,4.0646,4.0644,4.0642,4.0596,4.0586,4.0569,4.0566,4.0565,4.056,4.056,4.0479,4.0479,0,0,0,4.0674,4.0668,4.0661,4.064,4.0634,4.0643,4.064,4.0588,4.0586,4.0565,4.0564,4.056,4.0559,4.048,4.0479,4.0458,0,0,0,4.0675,4.0672,4.0662,4.066,4.0634,4.0611,4.0634,4.0589,4.0584,4.0565,4.056,4.0558,4.048,4.0479,4.046,4.0448,0,0,0,4.0679,4.0672,4.0666,4.066,4.0643,4.0612,4.0607,4.0588,4.0584,4.0561,4.0558,4.048,4.0479,4.0461,4.045,4.0427,0,0,0,4.0682,4.0646,4.0665,4.0624,4.0644,4.06,4.0607,4.0574,4.0552,4.0559,4.048,4.0479,4.0462,4.0452,4.0428,4.0407,4.0398,0,0,4.0635,4.064,4.0616,4.0633,4.0586,4.0606,4.0555,4.0534,4.0532,4.0496,4.0494,4.0459,4.045,4.0427,4.0349,4.0342,0,0,0,4.0601,4.0584,4.0571,4.0552,4.0538,4.0524,4.0512,4.0505,4.0475,4.0514,4.0444,4.0439,4.0425,4.0415,4.0409,4.0398,4.0474,4.0475,4.0475,4.0531,4.0533,4.0494,4.0491,4.0472,4.0462,4.0446,4.0434,4.0439,4.0422,4.0411,4.0364,4.0352,4.0348,4.0336,4.04,4.04,4.04,4.04,4.0463,4.044,4.045,4.0416,4.0418,4.0388,4.0376,4.0381,4.0353,4.0372,4.036,4.038,4.034,4.033,4.0398,4.0399,4.0399,4.0399,4.0399,4.0418,4.0408,4.0401,4.0374,4.0353,4.035,4.0324,4.0325,4.0326,4.0314,4.0303,4.0304,4.0304,4.0309,4.0309,4.0309,4.0309,4.0309,4.0309,4.0374,4.0368,4.0347,4.033,4.0318,4.0303,4.0293,4.0281,4.0268,4.027,4.027,4.0277,4.0336,4.0351,4.0306,4.0306,4.0307,4.0307,4.0307,4.0305,4.0321,4.0288,4.0277,4.0258,4.0237,4.024,4.0215,4.0205,4.0192,4.0202,4.0246,4.0249,4.0254,4.0266,4.0202,4.0202,4.0202,4.0202,4.0267,4.027,4.0238,4.0219,4.0202,4.0202,4.0163,4.0155,4.0149,4.0143,4.0152,4.0169,4.0174,4.0175,4.0181,4.0192,4.0111,4.0111,4.0111,4.0224,4.0226,4.0194,4.0191,4.0176,4.0163,4.0127,4.0105,4.01,4.0107,4.0138,4.0142,4.0168,4.0177,4.0183,4.0193,4.0214,0,0]}]]